TINTIN B (43217 NORAD) Tracking and Keplerian Element Data

This shows tracking and keplerian element data for the satellite.

Feedback or suggestion? Click here.




ElementValue
Catalog43217
NameTINTIN B
Epoch Orbit2161
Epoch Day195.96294922
Epoch Year2018
RAAN203.1428
Inclination97.4611
Eccentricity0.0015727
Argument of Perigee134.2655
Mean Anonmoly225.9873
Mean Motion15.19341345
Decay Rate1.727E-05
L11 43217U 18020C 18195.96294922 .00001727 00000-0 84741-4 0 9990
L22 43217 97.4611 203.1428 0015727 134.2655 225.9873 15.19341345 21617

Live tracking and technical data element details for TINTIN B (NORAD 43217). TINTIN B can be tracked NOW for your location showing map with azimuth and elevation plus other details from your city location.

Track the satellite on the map from your city or location and see movement details for azimuth, elevation, latitude, longitude, range, height, and movement on the map or in text.







IsCatalogInMostPopularTable: catalog: 43217, numindb: 97
Update: records affected: 1



GetName: 43217 TINTIN B

Hit Count: updated at: Sun, 15 Jul 2018 23:01:32 GMT